Time,TemperatureF,DewpointF,PressureIn,WindDirection,WindDirectionDegrees,WindSpeedMPH,WindSpeedGustMPH,Humidity,HourlyPrecipIn,Conditions,Clouds,dailyrainin,SoftwareType,DateUTC
2013-07-30 00:00:00,84.1,78.4,30.05,East,84,16.0,20.0,83,0.00,RA,,0.00,WeatherDisplay:10.37,2013-07-30 06:00:00,
2013-07-30 00:15:00,84.1,77.3,30.04,East,91,17.0,23.0,80,0.00,CLR,,0.00,WeatherDisplay:10.37,2013-07-30 06:15:00,
2013-07-30 00:30:00,84.1,78.4,30.03,East,91,13.0,16.0,83,0.00,CLR,,0.00,WeatherDisplay:10.37,2013-07-30 06:30:00,
2013-07-30 00:45:00,84.0,78.3,30.03,East,87,12.0,16.0,83,0.00,CLR,,0.00,WeatherDisplay:10.37,2013-07-30 06:45:00,
2013-07-30 01:00:00,83.9,78.2,30.02,ENE,66,10.0,16.0,83,0.00,CLR,,0.00,WeatherDisplay:10.37,2013-07-30 07:00:00,
2013-07-30 01:15:00,83.8,78.4,30.02,East,79,7.0,14.0,84,0.00,CLR,,0.00,WeatherDisplay:10.37,2013-07-30 07:15:00,
2013-07-30 01:30:00,83.6,78.3,30.01,East,80,3.0,13.0,84,0.00,CLR,,0.00,WeatherDisplay:10.37,2013-07-30 07:30:00,
2013-07-30 01:45:00,83.6,77.9,30.00,ESE,118,9.0,13.0,83,0.00,CLR,,0.00,WeatherDisplay:10.37,2013-07-30 07:45:00,
2013-07-30 02:00:00,83.6,77.9,30.00,East,91,10.0,15.0,83,0.00,CLR,,0.00,WeatherDisplay:10.37,2013-07-30 08:00:00,
2013-07-30 02:15:00,83.9,78.2,30.01,East,96,8.0,14.0,83,0.00,CLR,,0.00,WeatherDisplay:10.37,2013-07-30 08:15:00,
2013-07-30 02:30:00,83.9,77.8,30.00,East,87,12.0,18.0,82,0.00,CLR,,0.00,WeatherDisplay:10.37,2013-07-30 08:30:00,
2013-07-30 02:45:00,83.8,78.1,30.00,East,93,10.0,16.0,83,0.00,CLR,,0.00,WeatherDisplay:10.37,2013-07-30 08:45:00,
2013-07-30 03:00:00,83.7,78.3,30.00,ESE,104,8.0,18.0,84,0.00,CLR,,0.00,WeatherDisplay:10.37,2013-07-30 09:00:00,
2013-07-30 03:15:00,83.7,78.0,30.00,East,91,6.0,16.0,83,0.00,CLR,,0.00,WeatherDisplay:10.37,2013-07-30 09:15:00,
2013-07-30 03:30:00,83.7,78.7,30.00,ESE,108,8.0,14.0,85,0.00,CLR,,0.00,WeatherDisplay:10.37,2013-07-30 09:30:00,
2013-07-30 03:45:00,83.7,78.4,30.00,ESE,109,6.0,16.0,84,0.00,CLR,,0.00,WeatherDisplay:10.37,2013-07-30 09:45:00,
2013-07-30 04:00:00,83.7,78.7,30.00,East,90,7.0,14.0,85,0.00,CLR,,0.00,WeatherDisplay:10.37,2013-07-30 10:00:00,
2013-07-30 04:15:00,83.7,78.7,30.01,East,93,6.0,15.0,85,0.00,CLR,,0.00,WeatherDisplay:10.37,2013-07-30 10:15:00,
2013-07-30 04:30:00,83.9,79.3,30.01,ESE,108,8.0,15.0,86,0.00,CLR,,0.00,WeatherDisplay:10.37,2013-07-30 10:30:00,
2013-07-30 04:45:00,83.8,78.4,30.01,ESE,107,14.0,18.0,84,0.00,CLR,,0.00,WeatherDisplay:10.37,2013-07-30 10:45:00,
2013-07-30 05:00:00,83.7,78.0,30.02,ESE,105,7.0,15.0,83,0.00,CLR,,0.00,WeatherDisplay:10.37,2013-07-30 11:00:00,
2013-07-30 05:15:00,83.7,78.0,30.02,ESE,107,6.0,16.0,83,0.00,CLR,,0.00,WeatherDisplay:10.37,2013-07-30 11:15:00,
2013-07-30 05:30:00,83.7,77.6,30.03,ESE,102,7.0,15.0,82,0.00,CLR,,0.00,WeatherDisplay:10.37,2013-07-30 11:30:00,
2013-07-30 05:45:00,83.8,77.7,30.03,ESE,107,5.0,16.0,82,0.00,CLR,,0.00,WeatherDisplay:10.37,2013-07-30 11:45:00,
2013-07-30 06:00:00,84.0,77.5,30.04,East,94,6.0,12.0,81,0.00,CLR,,0.00,WeatherDisplay:10.37,2013-07-30 12:00:00,
2013-07-30 06:15:00,84.3,77.5,30.04,ESE,105,10.0,16.0,80,0.00,CLR,,0.00,WeatherDisplay:10.37,2013-07-30 12:15:00,
2013-07-30 06:31:00,84.3,77.8,30.04,ESE,102,7.0,13.0,81,0.00,CLR,,0.00,WeatherDisplay:10.37,2013-07-30 12:31:00,
2013-07-30 06:44:00,84.7,77.8,30.04,East,96,6.0,13.0,80,0.00,CLR,,0.00,WeatherDisplay:10.37,2013-07-30 12:44:00,
2013-07-30 07:00:00,84.9,77.7,30.04,East,96,6.0,13.0,79,0.00,CLR,,0.00,WeatherDisplay:10.37,2013-07-30 13:00:00,
2013-07-30 07:14:00,85.3,78.8,30.04,East,97,3.0,13.0,81,0.00,CLR,,0.00,WeatherDisplay:10.37,2013-07-30 13:14:00,
2013-07-30 07:29:00,85.4,78.5,30.05,ESE,104,6.0,11.0,80,0.00,CLR,,0.00,WeatherDisplay:10.37,2013-07-30 13:29:00,
2013-07-30 07:44:00,86.4,78.3,30.05,ESE,105,5.0,10.0,77,0.00,CLR,,0.00,WeatherDisplay:10.37,2013-07-30 13:44:00,
2013-07-30 07:59:00,86.2,78.1,30.05,East,90,6.0,12.0,77,0.00,CLR,,0.00,WeatherDisplay:10.37,2013-07-30 13:59:00,
2013-07-30 08:14:00,86.6,78.1,30.05,ESE,102,7.0,14.0,76,0.00,CLR,,0.00,WeatherDisplay:10.37,2013-07-30 14:14:00,
2013-07-30 08:29:00,87.3,78.4,30.05,East,101,6.0,14.0,75,0.00,CLR,,0.00,WeatherDisplay:10.37,2013-07-30 14:29:00,
2013-07-30 08:44:00,86.9,77.6,30.05,ESE,114,9.0,12.0,74,0.00,CLR,,0.00,WeatherDisplay:10.37,2013-07-30 14:44:00,
2013-07-30 08:59:00,86.8,78.3,30.05,ESE,110,7.0,13.0,76,0.00,CLR,,0.00,WeatherDisplay:10.37,2013-07-30 14:59:00,
2013-07-30 09:14:00,87.2,78.3,30.06,ESE,104,7.0,12.0,75,0.00,CLR,,0.00,WeatherDisplay:10.37,2013-07-30 15:14:00,
2013-07-30 09:30:00,86.4,77.9,30.07,ESE,111,10.0,13.0,76,0.00,CLR,,0.00,WeatherDisplay:10.37,2013-07-30 15:30:00,
2013-07-30 09:44:00,87.4,78.9,30.07,East,95,7.0,13.0,76,0.00,CLR,,0.00,WeatherDisplay:10.37,2013-07-30 15:44:00,
2013-07-30 09:59:00,88.3,79.4,30.08,ESE,106,6.0,13.0,75,0.00,CLR,,0.00,WeatherDisplay:10.37,2013-07-30 15:59:00,
2013-07-30 10:14:00,88.7,79.3,30.07,East,100,5.0,13.0,74,0.00,CLR,,0.00,WeatherDisplay:10.37,2013-07-30 16:14:00,
2013-07-30 10:30:00,88.1,78.8,30.08,ESE,110,6.0,12.0,74,0.00,CLR,,0.00,WeatherDisplay:10.37,2013-07-30 16:30:00,
2013-07-30 10:44:00,87.8,78.9,30.08,ESE,110,9.0,12.0,75,0.00,CLR,,0.00,WeatherDisplay:10.37,2013-07-30 16:44:00,
2013-07-30 10:59:00,87.7,78.8,30.07,ESE,111,9.0,12.0,75,0.00,CLR,,0.00,WeatherDisplay:10.37,2013-07-30 16:59:00,
2013-07-30 11:15:00,88.1,79.1,30.07,ESE,105,6.0,12.0,75,0.00,CLR,,0.00,WeatherDisplay:10.37,2013-07-30 17:15:00,
2013-07-30 11:30:00,87.8,78.1,30.07,East,99,9.0,12.0,73,0.00,CLR,,0.00,WeatherDisplay:10.37,2013-07-30 17:30:00,
2013-07-30 11:44:00,88.1,79.2,30.06,ESE,113,6.0,12.0,75,0.00,CLR,,0.00,WeatherDisplay:10.37,2013-07-30 17:44:00,
2013-07-30 12:15:00,88.1,78.8,30.06,East,92,9.0,13.0,74,0.00,CLR,,0.00,WeatherDisplay:10.37,2013-07-30 18:15:00,
2013-07-30 12:30:00,88.7,79.3,30.05,East,89,8.0,13.0,74,0.00,CLR,,0.00,WeatherDisplay:10.37,2013-07-30 18:30:00,
2013-07-30 12:47:00,88.3,79.3,30.05,East,88,8.0,14.0,75,0.00,CLR,,0.00,WeatherDisplay:10.37,2013-07-30 18:47:00,
2013-07-30 13:01:00,88.0,78.6,30.05,East,85,10.0,14.0,74,0.00,CLR,,0.00,WeatherDisplay:10.37,2013-07-30 19:01:00,
2013-07-30 13:17:00,88.4,79.9,30.04,ENE,64,7.0,15.0,76,0.00,CLR,,0.00,WeatherDisplay:10.37,2013-07-30 19:17:00,
2013-07-30 13:47:00,87.6,79.5,30.03,East,95,10.0,14.0,77,0.00,CLR,,0.00,WeatherDisplay:10.37,2013-07-30 19:47:00,
2013-07-30 14:00:00,87.7,80.0,30.03,East,81,6.0,14.0,78,0.00,CLR,,0.00,WeatherDisplay:10.37,2013-07-30 20:00:00,
2013-07-30 14:16:00,88.6,79.6,30.02,ENE,63,6.0,13.0,75,0.00,CLR,,0.00,WeatherDisplay:10.37,2013-07-30 20:16:00,
2013-07-30 14:31:00,88.7,80.6,30.01,ENE,78,5.0,13.0,77,0.00,CLR,,0.00,WeatherDisplay:10.37,2013-07-30 20:31:00,
2013-07-30 14:45:00,88.0,79.1,30.01,East,82,5.0,15.0,75,0.00,CLR,,0.00,WeatherDisplay:10.37,2013-07-30 20:45:00,
2013-07-30 15:00:00,87.7,79.6,30.00,East,80,8.0,15.0,77,0.00,CLR,,0.00,WeatherDisplay:10.37,2013-07-30 21:00:00,
2013-07-30 15:15:00,87.9,80.2,29.99,ENE,63,6.0,13.0,78,0.00,CLR,,0.00,WeatherDisplay:10.37,2013-07-30 21:15:00,
2013-07-30 15:31:00,87.3,79.2,29.99,ENE,68,9.0,15.0,77,0.00,CLR,,0.00,WeatherDisplay:10.37,2013-07-30 21:31:00,
2013-07-30 15:45:00,87.2,79.5,29.99,ENE,70,8.0,13.0,78,0.00,CLR,,0.00,WeatherDisplay:10.37,2013-07-30 21:45:00,
2013-07-30 16:01:00,86.4,79.1,29.99,East,84,7.0,14.0,79,0.00,CLR,,0.00,WeatherDisplay:10.37,2013-07-30 22:01:00,
2013-07-30 16:15:00,85.5,79.0,29.99,East,87,10.0,15.0,81,0.00,CLR,,0.00,WeatherDisplay:10.37,2013-07-30 22:15:00,
2013-07-30 16:26:00,85.9,79.4,29.99,East,81,9.0,15.0,81,0.00,CLR,,0.00,WeatherDisplay:10.37,2013-07-30 22:26:00,
2013-07-30 16:45:00,85.9,79.0,29.99,East,83,10.0,15.0,80,0.00,CLR,,0.00,WeatherDisplay:10.37,2013-07-30 22:45:00,
2013-07-30 17:00:00,85.4,78.5,29.99,East,91,13.0,16.0,80,0.00,CLR,,0.00,WeatherDisplay:10.37,2013-07-30 23:00:00,
2013-07-30 17:31:00,85.0,78.9,30.00,East,81,10.0,16.0,82,0.00,CLR,,0.00,WeatherDisplay:10.37,2013-07-30 23:31:00,
2013-07-30 17:45:00,84.7,79.0,30.00,East,88,10.0,15.0,83,0.00,CLR,,0.00,WeatherDisplay:10.37,2013-07-30 23:45:00,
2013-07-30 18:15:00,84.9,78.8,30.00,East,92,10.0,15.0,82,0.00,CLR,,0.00,WeatherDisplay:10.37,2013-07-31 00:15:00,
2013-07-30 18:31:00,84.8,78.3,30.00,East,99,13.0,16.0,81,0.00,CLR,,0.00,WeatherDisplay:10.37,2013-07-31 00:31:00,
2013-07-30 18:45:00,84.9,78.1,30.01,East,96,13.0,16.0,80,0.00,CLR,,0.00,WeatherDisplay:10.37,2013-07-31 00:45:00,
2013-07-30 19:00:00,84.8,78.3,30.03,East,82,9.0,14.0,81,0.00,CLR,,0.00,WeatherDisplay:10.37,2013-07-31 01:00:00,
2013-07-30 19:15:00,84.8,77.9,30.03,East,89,8.0,15.0,80,0.00,CLR,,0.00,WeatherDisplay:10.37,2013-07-31 01:15:00,
2013-07-30 19:30:00,84.8,78.3,30.04,East,81,8.0,14.0,81,0.00,CLR,,0.00,WeatherDisplay:10.37,2013-07-31 01:30:00,
2013-07-30 19:45:00,84.8,77.9,30.04,East,95,9.0,14.0,80,0.00,CLR,,0.00,WeatherDisplay:10.37,2013-07-31 01:45:00,
2013-07-30 20:00:00,84.9,78.0,30.04,East,87,12.0,14.0,80,0.00,CLR,,0.00,WeatherDisplay:10.37,2013-07-31 02:00:00,
2013-07-30 20:15:00,84.7,78.6,30.05,East,90,8.0,15.0,82,0.00,CLR,,0.00,WeatherDisplay:10.37,2013-07-31 02:15:00,
2013-07-30 20:30:00,84.7,78.6,30.05,East,90,8.0,14.0,82,0.00,CLR,,0.00,WeatherDisplay:10.37,2013-07-31 02:30:00,
2013-07-30 20:45:00,84.7,77.8,30.06,East,85,10.0,13.0,80,0.00,CLR,,0.00,WeatherDisplay:10.37,2013-07-31 02:45:00,
2013-07-30 21:00:00,84.7,78.2,30.05,East,94,6.0,13.0,81,0.00,CLR,,0.00,WeatherDisplay:10.37,2013-07-31 03:00:00,
2013-07-30 21:15:00,84.6,78.5,30.05,East,89,5.0,12.0,82,0.00,CLR,,0.00,WeatherDisplay:10.37,2013-07-31 03:15:00,
2013-07-30 21:30:00,84.5,78.4,30.05,ENE,76,7.0,13.0,82,0.00,CLR,,0.00,WeatherDisplay:10.37,2013-07-31 03:30:00,
2013-07-30 21:45:00,84.6,78.9,30.05,East,88,10.0,14.0,83,0.00,CLR,,0.00,WeatherDisplay:10.37,2013-07-31 03:45:00,
2013-07-30 22:00:00,84.4,79.0,30.05,East,91,10.0,13.0,84,0.00,CLR,,0.00,WeatherDisplay:10.37,2013-07-31 04:00:00,
2013-07-30 22:15:00,84.4,79.0,30.06,East,88,8.0,13.0,84,0.00,CLR,,0.00,WeatherDisplay:10.37,2013-07-31 04:15:00,
2013-07-30 22:30:00,84.4,79.0,30.06,East,100,9.0,13.0,84,0.00,CLR,,0.00,WeatherDisplay:10.37,2013-07-31 04:30:00,
2013-07-30 22:45:00,84.2,78.8,30.05,ESE,103,5.0,12.0,84,0.00,CLR,,0.00,WeatherDisplay:10.37,2013-07-31 04:45:00,
2013-07-30 23:00:00,84.3,79.3,30.05,ESE,106,6.0,12.0,85,0.00,CLR,,0.00,WeatherDisplay:10.37,2013-07-31 05:00:00,
2013-07-30 23:15:00,84.2,78.8,30.05,East,101,2.0,10.0,84,0.00,CLR,,0.00,WeatherDisplay:10.37,2013-07-31 05:15:00,
2013-07-30 23:30:00,84.2,78.8,30.05,East,99,3.0,12.0,84,0.00,CLR,,0.00,WeatherDisplay:10.37,2013-07-31 05:30:00,
2013-07-30 23:45:00,84.0,78.6,30.05,East,95,6.0,9.0,84,0.00,CLR,,0.00,WeatherDisplay:10.37,2013-07-31 05:45:00,